Location: Добрич
(43.6638°N, 27.9002°E)
Time: 04:29:16
(UTC+03:00)

ISS - Pass Details

Date: 20 April 2026
Orbit: 414 x 424 km, 51.6° (Epoch: 15 May)

Event Time Altitude Azimuth Distance (km) Brightness Sun altitude
Exits shadow 04:55:09 21° 194° (SSW) 1,000 -2.3 -14.4°
Maximum altitude 04:56:52 36° 140° (SE) 679 -2.7 -14.2°
Drops below altitude 10° 05:00:00 10° 71° (ENE) 1,504 0.4 -13.7°
Sets 05:02:12 0° 63° (ENE) 2,374 2.1 -13.4°
